www.pogodaiklimat.ru

Погода и климат >> Архив погоды >> Норвегия >> Остров Белый


ПОГОДА на Острове Белый

  • Прогноз погоды на Острове Белый
  • Монитор погоды на Острове Белый

АРХИВ ПОГОДЫ на Острове Белый

Время (UTC), дата Ветер
(напр.,м/с)
 
Видим.   Явления Облачность Т
(С)
Тd
(С)
f
(%)
Тe
(С)
Тes
(С)
Комфортность P
(гПа)
Po
(гПа)
Тmin
(С)
Tmax
(С)
R
(мм)
R24
(мм)
S
(см)
10 11.08 С 13
{15}
н/о н/о -1.2 -1.4 99 -11 -11 1010.3 1009.2
11 11.08 СЗ 14
{15}
н/о н/о -1.1 -1.2 99 -11 -11 1009.8 1008.7
12 11.08 С 13
{17}
н/о н/о -1.0 -1.2 99 -11 -11 1009.6 1008.5
13 11.08 С 13
{17}
н/о н/о -0.9 -1.3 97 -11 -11 1009.7 1008.6
14 11.08 С 13
{16}
н/о н/о -1.0 -1.4 97 -11 -11 1009.5 1008.4
15 11.08 С 14
{17}
н/о н/о -1.0 -1.4 97 -11 -11 1009.0 1008.0
16 11.08 С 14
{17}
н/о н/о -0.9 -1.4 96 -11 -11 1008.9 1007.9
17 11.08 С 14
{18}
н/о н/о -1.0 -1.4 97 -11 -11 1008.9 1007.9
18 11.08 С 13
{18}
н/о н/о -1.0 -1.4 97 -11 -11 1009.1 1008.0 -1.2 -0.9
19 11.08 С 13
{16}
н/о н/о -1.1 -1.5 97 -11 -11 1008.5 1007.5
20 11.08 С 14
{18}
н/о н/о -1.0 -1.4 97 -11 -11 1008.1 1007.0
21 11.08 С 14
{17}
н/о н/о -1.0 -1.2 99 -11 -11 1007.9 1006.9
22 11.08 С 12
{15}
н/о н/о -1.1 -1.2 99 -11 -11 1008.0 1007.0
23 11.08 С 12
{15}
н/о н/о -1.1 -1.2 99 -11 -11 1008.3 1007.2
00 12.08 С 11
{18}
н/о н/о -1.0 -1.2 99 -10 -10 1008.4 1007.3
01 12.08 С 6
{13}
н/о н/о -0.9 -0.9 100 -8 -8 1008.7 1007.7
02 12.08 С 6
{12}
н/о н/о -0.7 -0.7 100 -8 -8 1008.8 1007.8
03 12.08 С 4
{8}
н/о н/о -0.5 -0.5 100 -6 -6 1009.1 1008.0
04 12.08 С 4
{5}
н/о н/о -0.4 -0.4 100 -6 -6 1009.0 1007.9
05 12.08 С 7
{8}
н/о н/о -0.3 -0.3 100 -8 -8 1009.3 1008.2
06 12.08 С 6
{13}
н/о н/о -0.2 -0.2 100 -7 -7 1009.6 1008.5 -1.1 -0.2
08 12.08 СЗ 5
{7}
н/о н/о -0.2 -0.2 100 -7 -7 1009.9 1008.8
09 12.08 С 6
{8}
н/о н/о -0.1 -0.1 100 -7 -7 1009.8 1008.8
10 12.08 С 9
{11}
н/о н/о -0.1 -0.1 100 -8 -8 1009.4 1008.3
12 12.08 С 9 н/о н/о -0.2 -0.2 100 -8 -8 1009.1 1008.0
13 12.08 С 9
{12}
н/о н/о -0.2 -0.2 100 -8 -8 1008.9 1007.8
14 12.08 С 6
{10}
н/о н/о -0.2 -0.2 100 -7 -7 1008.9 1007.8
15 12.08 С 4
{6}
н/о н/о -0.2 -0.2 100 -6 -6 1008.5 1007.4
16 12.08 С 2
{4}
н/о н/о -0.3 -0.3 100 -4 -4 1008.4 1007.4
19 12.08 С 1
{2}
н/о н/о -0.2 -0.2 100 -3 -3 1006.6 1005.6
20 12.08 С 1
{1}
н/о н/о -0.2 -0.2 100 -3 -3 1007.2 1006.1
21 12.08 С 1
{1}
н/о н/о -0.2 -0.2 100 -3 -3 1007.4 1006.3
22 12.08 С 1
{1}
н/о н/о -0.3 -0.3 100 -3 -3 1007.1 1006.1
23 12.08 С 1
{1}
н/о н/о -0.3 -0.3 100 -3 -3 1007.1 1006.0
00 13.08 С 1
{2}
н/о н/о -0.4 -0.4 100 -3 -3 1007.2 1006.1
01 13.08 С 1
{1}
н/о н/о -0.4 -0.4 100 -3 -3 1006.6 1005.5
02 13.08 С 1
{1}
н/о н/о -0.5 -0.5 100 -3 -3 1006.4 1005.3
03 13.08 С 1
{1}
н/о н/о -0.5 -0.5 100 -3 -3 1006.0 1004.9
04 13.08 С 1
{1}
н/о н/о -0.5 -0.5 100 -3 -3 1005.6 1004.5
05 13.08 С 1
{1}
н/о н/о -0.5 -0.5 100 -3 -3 1005.4 1004.3
06 13.08 С 1
{1}
н/о н/о -0.6 -0.6 100 -3 -3 1005.1 1004.0 -0.6 -0.2
07 13.08 С 1
{1}
н/о н/о -0.6 -0.6 100 -3 -3 1004.6 1003.5
08 13.08 С 1
{1}
н/о н/о -0.4 -0.4 100 -3 -3 1004.1 1003.0
09 13.08 С 1
{1}
н/о н/о -0.2 -0.2 100 -3 -3 1003.9 1002.9
10 13.08 СЗ 1
{1}
н/о н/о -0.1 -0.2 99 -2 -2 1003.8 1002.8
11 13.08 СЗ 1
{1}
н/о н/о -0.1 -0.3 99 -2 -2 1003.6 1002.6
12 13.08 СЗ 1
{1}
н/о н/о -0.1 -0.3 99 -2 -2 1003.4 1002.3
13 13.08 З 1
{1}
н/о н/о -0.3 -0.5 99 -3 -3 1003.3 1002.2
14 13.08 З 1
{1}
н/о н/о -0.2 -0.2 100 -3 -3 1003.0 1001.9
15 13.08 З 1
{1}
н/о н/о -0.2 -0.3 99 -2 -2 1002.5 1001.5
16 13.08 З 1
{1}
н/о н/о -0.3 -0.3 100 -3 -3 1002.2 1001.1
17 13.08 З 1
{1}
н/о н/о -0.4 -0.4 100 -3 -3 1001.8 1000.7
18 13.08 З 1
{1}
н/о н/о -0.4 -0.6 99 -3 -3 1001.5 1000.4 -0.6 0.0
20 13.08 штиль 0
{1}
н/о н/о -0.7 -0.7 100 -2 -2 1000.8 999.8
21 13.08 З 1
{1}
н/о н/о -0.6 -0.7 99 -3 -3 1000.6 999.6
22 13.08 З 1
{1}
н/о н/о -0.8 -1.4 96 -3 -3 1000.4 999.3
23 13.08 З 1
{1}
н/о н/о -0.6 -1.5 94 -3 -3 1000.1 999.0
01 14.08 З 1
{1}
н/о н/о -1.0 -1.5 96 -3 -3 999.9 998.8
02 14.08 штиль 0
{1}
н/о н/о -1.2 -1.3 99 -3 -3 999.7 998.6
03 14.08 ЮЗ 1
{1}
н/о н/о -1.1 -1.1 100 -3 -3 999.5 998.5
04 14.08 штиль 0
{1}
н/о н/о -1.3 -1.5 99 -3 -3 999.3 998.3
05 14.08 штиль 0
{1}
н/о н/о -1.0 -1.4 97 -2 -2 999.0 998.0
06 14.08 штиль 0
{1}
н/о н/о -0.9 -1.0 99 -2 -2 999.0 997.9
07 14.08 штиль 0
{1}
н/о н/о -0.7 -1.1 97 -2 -2 999.0 997.9
08 14.08 штиль 0
{1}
н/о н/о -0.5 -1.0 96 -2 -2 999.0 998.0
09 14.08 штиль 0 н/о н/о -0.4 -1.0 96 -2 -2 999.0 998.0
10 14.08 штиль 0
{1}
н/о н/о -0.4 -0.9 96 -2 -2 999.3 998.2
11 14.08 штиль 0 н/о н/о -0.1 -0.7 96 -1 -1 999.3 998.2
12 14.08 ЮЗ 4
{4}
н/о н/о -0.2 -0.6 97 -6 -6 999.2 998.2
13 14.08 Ю 3
{4}
н/о н/о -0.1 -0.7 96 -5 -5 999.1 998.0
14 14.08 Ю 2
{4}
н/о н/о 0.0 -0.6 96 -4 -4 999.1 998.0
15 14.08 ЮЗ 2
{4}
н/о н/о +0.1 -0.6 95 -4 -4 999.1 998.0
16 14.08 Ю 2
{3}
н/о н/о +0.1 -0.6 95 -4 -4 999.2 998.1
18 14.08 ЮЗ 1 н/о н/о 0.0 -0.7 95 -2 -2 999.3 998.3
19 14.08 Ю 2
{3}
н/о н/о -0.1 -0.7 96 -4 -4 999.3 998.2
20 14.08 Ю 1
{2}
н/о н/о -0.2 -0.8 96 -2 -2 999.1 998.1
21 14.08 Ю 2
{3}
н/о н/о -0.3 -0.8 96 -4 -4 999.2 998.1
22 14.08 Ю 2
{3}
н/о н/о -0.7 -1.2 96 -5 -5 999.2 998.1
23 14.08 ЮВ 2
{3}
н/о н/о -0.7 -0.8 99 -5 -5 999.3 998.2
00 15.08 ЮВ 2
{3}
н/о н/о -0.2 -0.6 97 -4 -4 999.4 998.3
01 15.08 ЮВ 2
{3}
н/о н/о -0.2 -0.8 96 -4 -4 999.2 998.2
02 15.08 ЮВ 4
{4}
н/о н/о 0.0 -1.4 90 -6 -6 999.0 998.0
03 15.08 В 4
{5}
н/о н/о +0.3 -1.4 88 -5 -5 998.9 997.9
04 15.08 С 3
{3}
н/о н/о -0.3 -0.7 97 -5 -5 998.9 997.9
05 15.08 С 2
{3}
н/о н/о -0.4 -0.8 97 -4 -4 998.8 997.8
06 15.08 С 1
{5}
н/о н/о +0.4 -0.6 93 -2 -2 998.7 997.6 -0.9 +0.4
07 15.08
{2}
н/о н/о +0.7 -1.0 88 998.5 997.5
08 15.08 С 1
{2}
н/о н/о +0.9 -1.0 87 -1 -1 998.5 997.5
09 15.08
{3}
н/о н/о 0.0 -1.0 93 998.3 997.2
10 15.08 С 3
{4}
н/о н/о -0.2 -0.6 97 -5 -5 998.1 997.1
11 15.08
{6}
н/о н/о +1.0 -0.1 92 997.9 996.8
12 15.08
{6}
н/о н/о +0.4 -0.2 96 997.7 996.6
13 15.08 С 4
{6}
н/о н/о +0.5 -0.1 96 -5 -5 997.5 996.5
14 15.08 С 3
{5}
н/о н/о +0.3 -0.1 97 -5 -5 997.5 996.5
15 15.08 С 3
{4}
н/о н/о +0.4 +0.1 98 -4 -4 997.3 996.2
17 15.08 С 2
{3}
н/о н/о -0.1 -0.1 100 -4 -4 997.2 996.2
18 15.08 С 1 н/о н/о -0.2 -0.2 100 -3 -3 997.1 996.1
19 15.08 С 2
{2}
н/о н/о -0.4 -0.4 100 -4 -4 997.0 995.9
20 15.08 С 1
{2}
н/о н/о -0.3 -0.3 100 -3 -3 996.9 995.9
21 15.08 СЗ 1
{2}
н/о н/о -0.7 -0.7 100 -3 -3 997.0 996.0
22 15.08 С 2
{2}
н/о н/о -0.7 -0.7 100 -5 -5 997.1 996.1
23 15.08 С 2
{3}
н/о н/о -0.6 -0.6 100 -5 -5 997.2 996.2
00 16.08 С 2
{3}
н/о н/о -0.4 -0.4 100 -4 -4 997.4 996.3
01 16.08 С 2
{2}
н/о н/о -0.3 -0.3 100 -4 -4 997.5 996.5
02 16.08 СЗ 2
{2}
н/о н/о -0.2 -0.2 100 -4 -4 997.6 996.5
03 16.08 СЗ 2
{2}
н/о н/о -0.3 -0.3 100 -4 -4 997.6 996.5
04 16.08 СЗ 2
{3}
н/о н/о -0.4 -0.4 100 -4 -4 997.8 996.7
05 16.08 СЗ 3
{3}
н/о н/о -0.6 -0.6 100 -6 -6 998.1 997.1
06 16.08 СЗ 1
{3}
н/о н/о -0.6 -0.6 100 -3 -3 998.3 997.2 -0.8 -0.1
07 16.08 З 1
{2}
н/о н/о -0.5 -0.5 100 -3 -3 998.6 997.5
08 16.08 З 1
{2}
н/о н/о -0.4 -0.4 100 -3 -3 998.8 997.7
09 16.08 ЮЗ 2
{2}
н/о н/о -0.3 -0.3 100 -4 -4 999.0 997.9
10 16.08 Ю 3
{3}
н/о н/о -0.2 -0.2 100 -5 -5 999.2 998.2
11 16.08 Ю 4
{5}
н/о н/о -0.6 -0.6 100 -6 -6 999.4 998.3
12 16.08 Ю 6
{7}
н/о н/о -0.6 -0.6 100 -8 -8 999.4 998.3
13 16.08 ЮВ 6
{7}
н/о н/о -0.3 -0.3 100 -7 -7 999.4 998.3
14 16.08 ЮВ 7
{8}
н/о н/о -0.1 -0.1 100 -8 -8 999.3 998.3
15 16.08 Ю 7
{8}
н/о н/о +0.1 +0.1 100 -7 -7 999.2 998.1
16 16.08 ЮВ 8
{9}
н/о н/о -0.3 -0.3 100 -8 -8 999.0 997.9
18 16.08 ЮВ 7 н/о н/о 0.0 0.0 100 -7 -7 999.0 998.0
19 16.08 ЮВ 6
{7}
н/о н/о -0.1 -0.1 100 -7 -7 999.0 997.9
20 16.08 ЮВ 7
{8}
н/о н/о -0.2 -0.2 100 -8 -8 998.8 997.7
21 16.08 ЮВ 7
{8}
н/о н/о 0.0 0.0 100 -7 -7 998.6 997.5
22 16.08 ЮВ 8
{8}
н/о н/о +0.2 -0.2 97 -7 -7 998.5 997.4
23 16.08 В 7
{8}
н/о н/о +0.3 -0.4 95 -7 -7 998.6 997.5
00 17.08 В 6
{8}
н/о н/о +0.7 -0.6 91 -6 -6 998.5 997.4
01 17.08 ЮЗ 2
{7}
н/о н/о -0.1 -0.3 99 -4 -4 998.9 997.9
02 17.08
{2}
н/о н/о 0.0 0.0 100 999.1 998.0
03 17.08 СЗ 1
{2}
н/о н/о -0.2 -0.2 100 -3 -3 999.4 998.3
04 17.08 Ю 3
{3}
н/о н/о +0.1 +0.1 100 -5 -5 999.7 998.6
05 17.08 Ю 3
{4}
н/о н/о -0.3 -0.3 100 -5 -5 999.9 998.8
06 17.08 ЮВ 4
{7}
н/о н/о -0.3 -0.3 100 -6 -6 1000.2 999.1 -0.4 +1.0
07 17.08 ЮВ 6
{7}
н/о н/о 0.0 0.0 100 -7 -7 1000.2 999.1
08 17.08 Ю 8
{9}
н/о н/о +0.1 +0.1 100 -8 -8 1000.3 999.3
09 17.08 ЮВ 8
{11}
н/о н/о 0.0 0.0 100 -8 -8 1000.5 999.4
10 17.08 ЮВ 7
{9}
н/о н/о +0.1 +0.1 100 -7 -7 1000.9 999.8
11 17.08 Ю 5
{8}
н/о н/о +0.3 +0.3 100 -6 -6 1001.5 1000.5
12 17.08 Ю 4
{11}
н/о н/о -0.3 -0.3 100 -6 -6 1002.2 1001.1
13 17.08 Ю 3
{5}
н/о н/о -0.3 -0.3 100 -5 -5 1002.6 1001.6
14 17.08 Ю 3
{5}
н/о н/о -0.1 -0.1 100 -5 -5 1002.9 1001.8
15 17.08 ЮВ 3
{5}
н/о н/о +0.2 -0.4 96 -5 -5 1003.2 1002.1
16 17.08 Ю 3
{4}
н/о н/о -0.1 -0.6 96 -5 -5 1003.6 1002.6
17 17.08 Ю 3
{4}
н/о н/о +0.2 -0.8 93 -5 -5 1003.9 1002.9
18 17.08 Ю 2
{5}
н/о н/о +1.0 -0.6 89 -3 -3 1004.1 1003.0 -0.6 +1.0
19 17.08 Ю 5
{6}
н/о н/о +0.1 -0.7 94 -6 -6 1004.4 1003.4
20 17.08 ЮВ 4
{7}
н/о н/о +0.5 -0.5 93 -5 -5 1004.7 1003.6
21 17.08 Ю 3
{4}
н/о н/о +1.3 -1.1 84 -3 -3 1005.0 1003.9
22 17.08 Ю 3
{4}
н/о н/о +0.9 -1.0 87 -4 -4 1005.3 1004.3
23 17.08 ЮВ 6
{6}
н/о н/о +0.7 -2.0 82 -6 -6 1005.5 1004.5
00 18.08 ЮВ 7
{8}
н/о н/о +0.3 -2.9 79 -7 -7 1005.6 1004.6
01 18.08 ЮВ 8
{9}
н/о н/о +0.2 -2.8 80 -7 -7 1005.7 1004.7
02 18.08 В 9
{9}
н/о н/о -0.2 -1.6 90 -8 -8 1006.0 1004.9
03 18.08 ЮВ 7
{9}
н/о н/о +1.7 -0.1 88 -5 -5 1006.2 1005.1
04 18.08 ЮВ 6
{8}
н/о н/о +2.0 +0.2 88 -4 -4 1006.3 1005.3
05 18.08 Ю 7
{8}
н/о н/о +1.9 -0.2 86 -5 -5 1006.3 1005.3
06 18.08 Ю 6
{9}
н/о н/о +1.5 -0.1 89 -5 -5 1006.6 1005.6 -0.6 +2.3
07 18.08 ЮВ 6
{7}
н/о н/о +1.6 0.0 89 -5 -5 1007.1 1006.0
08 18.08 Ю 6
{7}
н/о н/о +1.4 +0.1 91 -5 -5 1007.4 1006.3

 

Местоположение метеостанции Остров Белый (Норвегия): широта 80.07 долгота 31.50 высота над уровнем моря 10 м.

В архиве по умолчанию представлена погода на Острове Белый за последнюю неделю. Архивные данные за месяц целиком и за предыдущие месяцы, начиная с января 2011 года, Вы можете получить, выбрав интересующий диапазон дат из раскрывающегося списка и нажав кнопку "Ввод!".


*Определитесь, кто Вы:
робот инопланетянин человек

Внимание! Время в таблицах - всемирное. Для получения местного времени необходимо прибавить поправку, которая равна 1 ч.

Смотрите также архив погоды в соседних городах и на ближайших метеорологических станциях:

Погода на Острове Карла XII (Норвегия) (137 км)
Погода на Конгсёйа (Норвегия) (137 км)
Погода на Эдже (Норвегия) (271 км)
Погода на Верлегенхукен (Норвегия) (292 км)
Погода в Пирамиде (Норвегия) (347 км)
Погода в Свальбард аэропорту (Норвегия) (389 км)
Погода в Ню-Олесунн (Норвегия) (415 км)
Погода в Хопене (Норвегия) (422 км)
Погода в Баренцбурге (Шпицберген, Россия) (424 км)
Погода на Акселойа (Норвегия) (444 км)

Пояснения к столбцам:

Ветер - указаны скорость ветра в м/с - средняя за 10 мин, порывы в срок и между сроками (в фигурных скобках) и направление, откуда дует ветер: С - северный, СВ - северо-восточный, В - восточный, ЮВ - юго-восточный, Ю - южный, ЮЗ - юго-западный, З - западный, СЗ - северо-западный.
Видимость - горизонтальная дальность видимости в метрах или километрах. При видимости от 1 до 10 км при отсутствии осадков обычно наблюдается дымка, при ухудшении видимости до 1 км и менее - туман. В сухую погоду видимость может ухудшаться дымом, пылью или мглою.
Явления - указаны атмосферные явления, наблюдавшиеся в срок или в последний час перед сроком; фигурными скобками обозначены явления, наблюдавшиеся между сроками (за 1-3 часа до срока); квадратными скобками обозначены град или гололедные отложения с указанием их диаметра в мм.
Облачность - указаны через наклонную черту общая и нижняя облачность в баллах и высота нижней границы облаков в метрах; квадратными скобками обозначены формы облаков: Ci - перистые, Cs - перисто-слоистые, Cc - перисто-кучевые, Ac - высококучевые, As - высокослоистые, Sc - слоисто-кучевые, Ns - слоисто-дождевые, Cu - кучевые, Cb - кучево-дождевые. Подробнее классификацию облаков см. в Атласе облаков (PDF).
T - Температура воздуха - температура, измеренная на высоте 2 м над землей.
Td - Температура точки росы - температура, при понижении до которой содержащийся в воздухе водяной пар достигнет насыщения.
f - Относительная влажность воздуха - влажноcть воздуха, измеренная на высоте 2 м над землей.
Te - Эффективная температура - температура, которую ощущает одетый по сезону человек в тени. Характеристика душности погоды. При расчете учитывается влияние влажности воздуха и скорости ветра на теплоощущения человека.
Tes - Эффективная температура на солнце - температура, которую ощущает человек, с поправкой на солнечный нагрев. Характеристика знойности погоды. Зависит от высоты солнца над горизонтом, облачности и скорости ветра. Ночью, в пасмурную погоду, а также при ветре 12 м/с и более поправка равна нулю.
P - Атмосферное давление - приведенное к уровню моря атмосферное давление.
Po - Атмосферное давление - измеренное на уровне метеостанции атмосферное давление.
Tmin - Минимальная температура - минимум температуры воздуха на высоте 2 м над землей.
Tmax - Максимальная температура - максимум температуры воздуха на высоте 2 м над землей.
R - Количество осадков - Количество выпавших осадков за период времени, мм. При наведении курсора мыши на число - период времени, за который выпало указанное количество осадков.
R24 - Количество осадков - Количество выпавших осадков за 24 часа, мм.
S - Снежный покров - Высота снежного покрова, см. При наведении курсора мыши на число - состояние снежного покрова и степень покрытия местности в баллах.